Year,Month,Day,Hour,Minute,Value (Times are PST for temperature in C)
2016,08,03,00,00,12.40
2016,08,03,00,01,12.30
2016,08,03,00,02,12.30
2016,08,03,00,03,12.30
2016,08,03,00,04,12.30
2016,08,03,00,05,12.30
2016,08,03,00,06,12.30
2016,08,03,00,07,12.30
2016,08,03,00,08,12.30
2016,08,03,00,09,12.30
2016,08,03,00,10,12.30
2016,08,03,00,11,12.20
2016,08,03,00,12,12.20
2016,08,03,00,13,12.20
2016,08,03,00,14,12.20
2016,08,03,00,15,12.20
2016,08,03,00,16,12.20
2016,08,03,00,17,12.20
2016,08,03,00,18,12.20
2016,08,03,00,19,12.20
2016,08,03,00,20,12.20
2016,08,03,00,21,12.20
2016,08,03,00,22,12.20
2016,08,03,00,23,12.10
2016,08,03,00,24,12.10
2016,08,03,00,25,12.10
2016,08,03,00,26,12.10
2016,08,03,00,27,12.10
2016,08,03,00,28,12.00
2016,08,03,00,29,12.00
2016,08,03,00,30,12.00
2016,08,03,00,31,12.00
2016,08,03,00,32,12.00
2016,08,03,00,33,12.00
2016,08,03,00,34,11.90
2016,08,03,00,35,11.90
2016,08,03,00,36,11.90
2016,08,03,00,37,11.90
2016,08,03,00,38,11.90
2016,08,03,00,39,11.90
2016,08,03,00,40,11.90
2016,08,03,00,41,11.90
2016,08,03,00,42,11.90
2016,08,03,00,43,11.90
2016,08,03,00,44,11.80
2016,08,03,00,45,11.80
2016,08,03,00,46,11.80
2016,08,03,00,47,11.80
2016,08,03,00,48,11.80
2016,08,03,00,49,11.80
2016,08,03,00,50,11.80
2016,08,03,00,51,11.80
2016,08,03,00,52,11.80
2016,08,03,00,53,11.70
2016,08,03,00,54,11.70
2016,08,03,00,55,11.70
2016,08,03,00,56,11.70
2016,08,03,00,57,11.80
2016,08,03,00,58,11.80
2016,08,03,00,59,11.80
2016,08,03,01,00,11.80
2016,08,03,01,01,11.80
2016,08,03,01,02,11.80
2016,08,03,01,03,11.70
2016,08,03,01,04,11.70
2016,08,03,01,05,11.70
2016,08,03,01,06,11.70
2016,08,03,01,07,11.70
2016,08,03,01,08,11.70
2016,08,03,01,09,11.70
2016,08,03,01,10,11.60
2016,08,03,01,11,11.60
2016,08,03,01,12,11.60
2016,08,03,01,13,11.60
2016,08,03,01,14,11.60
2016,08,03,01,15,11.60
2016,08,03,01,16,11.60
2016,08,03,01,17,11.60
2016,08,03,01,18,11.50
2016,08,03,01,19,11.50
2016,08,03,01,20,11.50
2016,08,03,01,21,11.50
2016,08,03,01,22,11.50
2016,08,03,01,23,11.50
2016,08,03,01,24,11.60
2016,08,03,01,25,11.60
2016,08,03,01,26,11.60
2016,08,03,01,27,11.50
2016,08,03,01,28,11.50
2016,08,03,01,29,11.50
2016,08,03,01,30,11.50
2016,08,03,01,31,11.50
2016,08,03,01,32,11.50
2016,08,03,01,33,11.50
2016,08,03,01,34,11.50
2016,08,03,01,35,11.50
2016,08,03,01,36,11.50
2016,08,03,01,37,11.50
2016,08,03,01,38,11.50
2016,08,03,01,39,11.50
2016,08,03,01,40,11.50
2016,08,03,01,41,11.50
2016,08,03,01,42,11.50
2016,08,03,01,43,11.50
2016,08,03,01,44,11.50
2016,08,03,01,45,11.50
2016,08,03,01,46,11.50
2016,08,03,01,47,11.50
2016,08,03,01,48,11.50
2016,08,03,01,49,11.40
2016,08,03,01,50,11.40
2016,08,03,01,51,11.40
2016,08,03,01,52,11.40
2016,08,03,01,53,11.40
2016,08,03,01,54,11.40
2016,08,03,01,55,11.40
2016,08,03,01,56,11.30
2016,08,03,01,57,11.30
2016,08,03,01,58,11.30
2016,08,03,01,59,11.30
2016,08,03,02,00,11.20
2016,08,03,02,01,11.20
2016,08,03,02,02,11.20
2016,08,03,02,03,11.20
2016,08,03,02,04,11.20
2016,08,03,02,05,11.20
2016,08,03,02,06,11.20
2016,08,03,02,07,11.20
2016,08,03,02,08,11.20
2016,08,03,02,09,11.10
2016,08,03,02,10,11.10
2016,08,03,02,11,11.10
2016,08,03,02,12,11.10
2016,08,03,02,13,11.00
2016,08,03,02,14,11.00
2016,08,03,02,15,11.00
2016,08,03,02,16,11.00
2016,08,03,02,17,11.00
2016,08,03,02,18,11.00
2016,08,03,02,19,11.00
2016,08,03,02,20,11.00
2016,08,03,02,21,11.00
2016,08,03,02,22,11.00
2016,08,03,02,23,11.10
2016,08,03,02,24,11.10
2016,08,03,02,25,11.10
2016,08,03,02,26,11.10
2016,08,03,02,27,11.10
2016,08,03,02,28,11.10
2016,08,03,02,29,11.10
2016,08,03,02,30,11.10
2016,08,03,02,31,11.10
2016,08,03,02,32,11.10
2016,08,03,02,33,11.10
2016,08,03,02,34,11.10
2016,08,03,02,35,11.10
2016,08,03,02,36,11.10
2016,08,03,02,37,11.10
2016,08,03,02,38,11.10
2016,08,03,02,39,11.10
2016,08,03,02,40,11.10
2016,08,03,02,41,11.10
2016,08,03,02,42,11.10
2016,08,03,02,43,11.10
2016,08,03,02,44,11.00
2016,08,03,02,45,11.00
2016,08,03,02,46,10.90
2016,08,03,02,47,10.90
2016,08,03,02,48,10.90
2016,08,03,02,49,10.90
2016,08,03,02,50,10.90
2016,08,03,02,51,10.90
2016,08,03,02,52,10.90
2016,08,03,02,53,10.90
2016,08,03,02,54,10.90
2016,08,03,02,55,10.90
2016,08,03,02,56,10.80
2016,08,03,02,57,10.80
2016,08,03,02,58,10.80
2016,08,03,02,59,10.80
2016,08,03,03,00,10.80
2016,08,03,03,01,10.80
2016,08,03,03,02,10.80
2016,08,03,03,03,10.80
2016,08,03,03,04,10.80
2016,08,03,03,05,10.80
2016,08,03,03,06,10.80
2016,08,03,03,07,10.80
2016,08,03,03,08,10.80
2016,08,03,03,09,10.80
2016,08,03,03,10,10.80
2016,08,03,03,11,10.80
2016,08,03,03,12,10.80
2016,08,03,03,13,10.80
2016,08,03,03,14,10.90
2016,08,03,03,15,10.90
2016,08,03,03,16,10.90
2016,08,03,03,17,10.90
2016,08,03,03,18,10.90
2016,08,03,03,19,10.90
2016,08,03,03,20,10.90
2016,08,03,03,21,10.90
2016,08,03,03,22,10.90
2016,08,03,03,23,10.90
2016,08,03,03,24,10.90
2016,08,03,03,25,10.90
2016,08,03,03,26,10.80
2016,08,03,03,27,10.80
2016,08,03,03,28,10.80
2016,08,03,03,29,10.80
2016,08,03,03,30,10.80
2016,08,03,03,31,10.80
2016,08,03,03,32,10.80
2016,08,03,03,33,10.80
2016,08,03,03,34,10.80
2016,08,03,03,35,10.80
2016,08,03,03,36,10.90
2016,08,03,03,37,10.90
2016,08,03,03,38,10.90
2016,08,03,03,39,10.90
2016,08,03,03,40,10.90
2016,08,03,03,41,10.90
2016,08,03,03,42,10.90
2016,08,03,03,43,10.90
2016,08,03,03,44,10.80
2016,08,03,03,45,10.80
2016,08,03,03,46,10.80
2016,08,03,03,47,10.80
2016,08,03,03,48,10.80
2016,08,03,03,49,10.80
2016,08,03,03,50,10.70
2016,08,03,03,51,10.70
2016,08,03,03,52,10.70
2016,08,03,03,53,10.60
2016,08,03,03,54,10.60
2016,08,03,03,55,10.60
2016,08,03,03,56,10.60
2016,08,03,03,57,10.60
2016,08,03,03,58,10.60
2016,08,03,03,59,10.60
2016,08,03,04,00,10.60
2016,08,03,04,01,10.60
2016,08,03,04,02,10.60
2016,08,03,04,03,10.70
2016,08,03,04,04,10.70
2016,08,03,04,05,10.70
2016,08,03,04,06,10.70
2016,08,03,04,07,10.70
2016,08,03,04,09,10.70
2016,08,03,04,10,10.70
2016,08,03,04,11,10.70
2016,08,03,04,12,10.70
2016,08,03,04,13,10.70
2016,08,03,04,14,10.70
2016,08,03,04,15,10.70
2016,08,03,04,16,10.70
2016,08,03,04,17,10.70
2016,08,03,04,18,10.70
2016,08,03,04,19,10.70
2016,08,03,04,20,10.70
2016,08,03,04,21,10.70
2016,08,03,04,22,10.70
2016,08,03,04,23,10.70
2016,08,03,04,24,10.70
2016,08,03,04,25,10.70
2016,08,03,04,26,10.70
2016,08,03,04,27,10.70
2016,08,03,04,28,10.70
2016,08,03,04,29,10.70
2016,08,03,04,30,10.60
2016,08,03,04,31,10.60
2016,08,03,04,32,10.60
2016,08,03,04,33,10.60
2016,08,03,04,34,10.50
2016,08,03,04,35,10.50
2016,08,03,04,36,10.50
2016,08,03,04,37,10.40
2016,08,03,04,38,10.40
2016,08,03,04,39,10.40
2016,08,03,04,40,10.40
2016,08,03,04,41,10.40
2016,08,03,04,42,10.40
2016,08,03,04,43,10.40
2016,08,03,04,44,10.40
2016,08,03,04,45,10.40
2016,08,03,04,46,10.40
2016,08,03,04,47,10.40
2016,08,03,04,48,10.40
2016,08,03,04,49,10.40
2016,08,03,04,50,10.40
2016,08,03,04,51,10.40
2016,08,03,04,52,10.40
2016,08,03,04,53,10.40
2016,08,03,04,54,10.30
2016,08,03,04,55,10.30
2016,08,03,04,56,10.30
2016,08,03,04,57,10.30
2016,08,03,04,58,10.30
2016,08,03,04,59,10.30
2016,08,03,05,00,10.30
2016,08,03,05,01,10.30
2016,08,03,05,02,10.30
2016,08,03,05,03,10.30
2016,08,03,05,04,10.30
2016,08,03,05,05,10.30
2016,08,03,05,06,10.30
2016,08,03,05,07,10.30
2016,08,03,05,08,10.40
2016,08,03,05,09,10.40
2016,08,03,05,10,10.40
2016,08,03,05,11,10.40
2016,08,03,05,12,10.40
2016,08,03,05,13,10.30
2016,08,03,05,14,10.30
2016,08,03,05,15,10.30
2016,08,03,05,16,10.30
2016,08,03,05,17,10.30
2016,08,03,05,18,10.30
2016,08,03,05,19,10.20
2016,08,03,05,20,10.20
2016,08,03,05,21,10.20
2016,08,03,05,22,10.20
2016,08,03,05,23,10.10
2016,08,03,05,24,10.10
2016,08,03,05,25,10.10
2016,08,03,05,26,10.10
2016,08,03,05,27,10.10
2016,08,03,05,28,10.10
2016,08,03,05,29,10.10
2016,08,03,05,30,10.10
2016,08,03,05,31,10.20
2016,08,03,05,32,10.30
2016,08,03,05,33,10.30
2016,08,03,05,34,10.30
2016,08,03,05,35,10.40
2016,08,03,05,36,10.40
2016,08,03,05,37,10.30
2016,08,03,05,38,10.30
2016,08,03,05,39,10.30
2016,08,03,05,40,10.30
2016,08,03,05,41,10.30
2016,08,03,05,42,10.30
2016,08,03,05,43,10.30
2016,08,03,05,44,10.30
2016,08,03,05,45,10.30
2016,08,03,05,46,10.30
2016,08,03,05,47,10.30
2016,08,03,05,48,10.30
2016,08,03,05,49,10.30
2016,08,03,05,50,10.20
2016,08,03,05,51,10.20
2016,08,03,05,52,10.20
2016,08,03,05,53,10.20
2016,08,03,05,54,10.20
2016,08,03,05,55,10.10
2016,08,03,05,56,10.10
2016,08,03,05,57,10.10
2016,08,03,05,58,10.10
2016,08,03,05,59,10.10
2016,08,03,06,00,10.10
2016,08,03,06,01,10.10
2016,08,03,06,02,10.10
2016,08,03,06,03,10.00
2016,08,03,06,04,10.00
2016,08,03,06,05,10.00
2016,08,03,06,06,10.00
2016,08,03,06,07,10.00
2016,08,03,06,08,10.00
2016,08,03,06,09,10.10
2016,08,03,06,10,10.10
2016,08,03,06,11,10.10
2016,08,03,06,12,10.10
2016,08,03,06,13,10.10
2016,08,03,06,14,10.10
2016,08,03,06,15,10.10
2016,08,03,06,16,10.10
2016,08,03,06,17,10.10
2016,08,03,06,18,10.10
2016,08,03,06,19,10.10
2016,08,03,06,20,10.10
2016,08,03,06,21,10.10
2016,08,03,06,22,10.10
2016,08,03,06,23,10.10
2016,08,03,06,24,10.10
2016,08,03,06,25,10.10
2016,08,03,06,26,10.20
2016,08,03,06,27,10.20
2016,08,03,06,28,10.20
2016,08,03,06,29,10.20
2016,08,03,06,30,10.20
2016,08,03,06,31,10.30
2016,08,03,06,32,10.20
2016,08,03,06,33,10.20
2016,08,03,06,34,10.20
2016,08,03,06,35,10.20
2016,08,03,06,36,10.20
2016,08,03,06,37,10.20
2016,08,03,06,38,10.20
2016,08,03,06,39,10.20
2016,08,03,06,40,10.30
2016,08,03,06,41,10.30
2016,08,03,06,42,10.30
2016,08,03,06,43,10.40
2016,08,03,06,44,10.40
2016,08,03,06,45,10.40
2016,08,03,06,46,10.40
2016,08,03,06,47,10.40
2016,08,03,06,48,10.30
2016,08,03,06,49,10.30
2016,08,03,06,50,10.30
2016,08,03,06,51,10.30
2016,08,03,06,52,10.40
2016,08,03,06,53,10.40
2016,08,03,06,54,10.40
2016,08,03,06,55,10.40
2016,08,03,06,56,10.40
2016,08,03,06,57,10.40
2016,08,03,06,58,10.40
2016,08,03,06,59,10.40
2016,08,03,07,00,10.40
2016,08,03,07,01,10.40
2016,08,03,07,02,10.40
2016,08,03,07,03,10.40
2016,08,03,07,04,10.40
2016,08,03,07,05,10.40
2016,08,03,07,06,10.40
2016,08,03,07,07,10.50
2016,08,03,07,08,10.50
2016,08,03,07,09,10.50
2016,08,03,07,10,10.60
2016,08,03,07,11,10.60
2016,08,03,07,12,10.60
2016,08,03,07,13,10.60
2016,08,03,07,14,10.60
2016,08,03,07,15,10.60
2016,08,03,07,16,10.60
2016,08,03,07,17,10.60
2016,08,03,07,18,10.70
2016,08,03,07,19,10.70
2016,08,03,07,20,10.70
2016,08,03,07,21,10.70
2016,08,03,07,22,10.80
2016,08,03,07,23,10.80
2016,08,03,07,24,10.80
2016,08,03,07,25,10.90
2016,08,03,07,26,10.90
2016,08,03,07,27,11.00
2016,08,03,07,28,11.10
2016,08,03,07,29,11.10
2016,08,03,07,30,11.20
2016,08,03,07,31,11.30
2016,08,03,07,32,11.30
2016,08,03,07,33,11.40
2016,08,03,07,34,11.40
2016,08,03,07,35,11.40
2016,08,03,07,36,11.50
2016,08,03,07,37,11.50
2016,08,03,07,38,11.60
2016,08,03,07,39,11.60
2016,08,03,07,40,11.70
2016,08,03,07,41,11.70
2016,08,03,07,42,11.80
2016,08,03,07,43,11.80
2016,08,03,07,44,11.90
2016,08,03,07,45,11.90
2016,08,03,07,46,11.90
2016,08,03,07,47,11.90
2016,08,03,07,48,12.00
2016,08,03,07,49,12.00
2016,08,03,07,50,12.00
2016,08,03,07,51,12.10
2016,08,03,07,52,12.10
2016,08,03,07,53,12.10
2016,08,03,07,54,12.20
2016,08,03,07,55,12.20
2016,08,03,07,56,12.20
2016,08,03,07,57,12.30
2016,08,03,07,58,12.30
2016,08,03,07,59,12.40
2016,08,03,08,00,12.40
2016,08,03,08,01,12.40
2016,08,03,08,02,12.50
2016,08,03,08,03,12.50
2016,08,03,08,04,12.50
2016,08,03,08,05,12.60
2016,08,03,08,06,12.60
2016,08,03,08,07,12.60
2016,08,03,08,08,12.70
2016,08,03,08,09,12.70
2016,08,03,08,10,12.70
2016,08,03,08,11,12.80
2016,08,03,08,12,12.80
2016,08,03,08,13,12.80
2016,08,03,08,14,12.90
2016,08,03,08,15,12.90
2016,08,03,08,16,12.90
2016,08,03,08,17,13.00
2016,08,03,08,18,13.00
2016,08,03,08,19,13.10
2016,08,03,08,20,13.10
2016,08,03,08,21,13.10
2016,08,03,08,22,13.20
2016,08,03,08,23,13.20
2016,08,03,08,24,13.20
2016,08,03,08,25,13.20
2016,08,03,08,26,13.20
2016,08,03,08,27,13.20
2016,08,03,08,28,13.20
2016,08,03,08,29,13.20
2016,08,03,08,30,13.20
2016,08,03,08,31,13.30
2016,08,03,08,32,13.30
2016,08,03,08,33,13.30
2016,08,03,08,34,13.30
2016,08,03,08,35,13.30
2016,08,03,08,36,13.30
2016,08,03,08,37,13.30
2016,08,03,08,38,13.40
2016,08,03,08,39,13.40
2016,08,03,08,40,13.40
2016,08,03,08,41,13.40
2016,08,03,08,42,13.40
2016,08,03,08,43,13.50
2016,08,03,08,44,13.50
2016,08,03,08,45,13.60
2016,08,03,08,46,13.70
2016,08,03,08,47,13.80
2016,08,03,08,48,13.90
2016,08,03,08,49,14.00
2016,08,03,08,50,14.10
2016,08,03,08,51,14.30
2016,08,03,08,52,14.40
2016,08,03,08,53,14.60
2016,08,03,08,54,14.70
2016,08,03,08,55,14.80
2016,08,03,08,56,14.90
2016,08,03,08,57,15.10
2016,08,03,08,58,15.20
2016,08,03,08,59,15.30
2016,08,03,09,00,15.40
2016,08,03,09,01,15.50
2016,08,03,09,02,15.60
2016,08,03,09,03,15.70
2016,08,03,09,04,15.80
2016,08,03,09,05,15.90
2016,08,03,09,06,16.00
2016,08,03,09,07,16.10
2016,08,03,09,08,16.10
2016,08,03,09,09,16.20
2016,08,03,09,10,16.20
2016,08,03,09,11,16.20
2016,08,03,09,12,16.30
2016,08,03,09,13,16.30
2016,08,03,09,14,16.40
2016,08,03,09,15,16.50
2016,08,03,09,16,16.60
2016,08,03,09,17,16.60
2016,08,03,09,18,16.70
2016,08,03,09,19,16.70
2016,08,03,09,20,16.70
2016,08,03,09,21,16.80
2016,08,03,09,22,16.80
2016,08,03,09,23,16.80
2016,08,03,09,24,16.80
2016,08,03,09,25,16.80
2016,08,03,09,26,16.80
2016,08,03,09,27,16.80
2016,08,03,09,28,16.80
2016,08,03,09,29,16.90
2016,08,03,09,30,16.90
2016,08,03,09,31,17.00
2016,08,03,09,32,17.10
2016,08,03,09,33,17.10
2016,08,03,09,34,17.20
2016,08,03,09,35,17.20
2016,08,03,09,36,17.20
2016,08,03,09,37,17.20
2016,08,03,09,38,17.20
2016,08,03,09,39,17.10
2016,08,03,09,40,17.10
2016,08,03,09,41,17.10
2016,08,03,09,42,17.10
2016,08,03,09,43,17.20
2016,08,03,09,44,17.20
2016,08,03,09,45,17.30
2016,08,03,09,46,17.40
2016,08,03,09,47,17.40
2016,08,03,09,48,17.40
2016,08,03,09,49,17.40
2016,08,03,09,50,17.50
2016,08,03,09,51,17.50
2016,08,03,09,52,17.50
2016,08,03,09,53,17.50
2016,08,03,09,54,17.50
2016,08,03,09,55,17.60
2016,08,03,09,56,17.60
2016,08,03,09,57,17.70
2016,08,03,09,58,17.70
2016,08,03,09,59,17.70
2016,08,03,10,00,17.80
2016,08,03,10,01,17.90
2016,08,03,10,02,17.90
2016,08,03,10,03,18.00
2016,08,03,10,04,18.00
2016,08,03,10,05,18.00
2016,08,03,10,06,17.90
2016,08,03,10,07,17.90
2016,08,03,10,08,17.90
2016,08,03,10,09,17.90
2016,08,03,10,10,17.90
2016,08,03,10,11,17.90
2016,08,03,10,12,17.90
2016,08,03,10,13,18.00
2016,08,03,10,14,18.00
2016,08,03,10,15,18.10
2016,08,03,10,16,18.10
2016,08,03,10,17,18.10
2016,08,03,10,18,18.10
2016,08,03,10,19,18.10
2016,08,03,10,20,18.10
2016,08,03,10,21,18.10
2016,08,03,10,22,18.10
2016,08,03,10,23,18.10
2016,08,03,10,24,18.00
2016,08,03,10,25,18.00
2016,08,03,10,26,18.00
2016,08,03,10,27,17.90
2016,08,03,10,28,17.90
2016,08,03,10,29,17.80
2016,08,03,10,30,17.80
2016,08,03,10,31,17.80
2016,08,03,10,32,17.80
2016,08,03,10,33,17.90
2016,08,03,10,34,17.90
2016,08,03,10,35,18.00
2016,08,03,10,36,18.00
2016,08,03,10,37,18.10
2016,08,03,10,38,18.10
2016,08,03,10,39,18.10
2016,08,03,10,40,18.10
2016,08,03,10,41,18.10
2016,08,03,10,42,18.20
2016,08,03,10,43,18.20
2016,08,03,10,44,18.20
2016,08,03,10,45,18.20
2016,08,03,10,46,18.30
2016,08,03,10,47,18.30
2016,08,03,10,48,18.30
2016,08,03,10,49,18.40
2016,08,03,10,50,18.40
2016,08,03,10,51,18.50
2016,08,03,10,52,18.50
2016,08,03,10,53,18.50
2016,08,03,10,54,18.40
2016,08,03,10,55,18.40
2016,08,03,10,56,18.40
2016,08,03,10,57,18.30
2016,08,03,10,58,18.30
2016,08,03,10,59,18.20
2016,08,03,11,00,18.10
2016,08,03,11,01,18.20
2016,08,03,11,02,18.20
2016,08,03,11,03,18.10
2016,08,03,11,04,18.10
2016,08,03,11,05,18.20
2016,08,03,11,06,18.30
2016,08,03,11,07,18.30
2016,08,03,11,08,18.40
2016,08,03,11,09,18.50
2016,08,03,11,10,18.50
2016,08,03,11,11,18.50
2016,08,03,11,12,18.60
2016,08,03,11,13,18.60
2016,08,03,11,14,18.60
2016,08,03,11,15,18.60
2016,08,03,11,16,18.60
2016,08,03,11,17,18.70
2016,08,03,11,18,18.80
2016,08,03,11,19,18.80
2016,08,03,11,20,18.80
2016,08,03,11,21,18.70
2016,08,03,11,22,18.60
2016,08,03,11,23,18.60
2016,08,03,11,24,18.50
2016,08,03,11,25,18.50
2016,08,03,11,26,18.40
2016,08,03,11,27,18.40
2016,08,03,11,28,18.40
2016,08,03,11,29,18.40
2016,08,03,11,30,18.30
2016,08,03,11,31,18.30
2016,08,03,11,32,18.20
2016,08,03,11,33,18.20
2016,08,03,11,34,18.10
2016,08,03,11,35,18.10
2016,08,03,11,36,18.20
2016,08,03,11,37,18.30
2016,08,03,11,38,18.30
2016,08,03,11,39,18.30
2016,08,03,11,40,18.20
2016,08,03,11,41,18.20
2016,08,03,11,42,18.20
2016,08,03,11,43,18.20
2016,08,03,11,44,18.20
2016,08,03,11,45,18.20
2016,08,03,11,46,18.20
2016,08,03,11,47,18.30
2016,08,03,11,48,18.40
2016,08,03,11,49,18.40
2016,08,03,11,50,18.50
2016,08,03,11,51,18.50
2016,08,03,11,52,18.60
2016,08,03,11,53,18.50
2016,08,03,11,54,18.50
2016,08,03,11,55,18.40
2016,08,03,11,56,18.40
2016,08,03,11,57,18.40
2016,08,03,11,58,18.40
2016,08,03,11,59,18.40
2016,08,03,12,00,18.40
2016,08,03,12,01,18.40
2016,08,03,12,02,18.50
2016,08,03,12,03,18.60
2016,08,03,12,04,18.70
2016,08,03,12,05,18.80
2016,08,03,12,06,18.80
2016,08,03,12,07,18.90
2016,08,03,12,08,19.10
2016,08,03,12,09,19.20
2016,08,03,12,10,19.20
2016,08,03,12,11,19.30
2016,08,03,12,12,19.30
2016,08,03,12,13,19.40
2016,08,03,12,14,19.40
2016,08,03,12,15,19.50
2016,08,03,12,16,19.50
2016,08,03,12,17,19.50
2016,08,03,12,18,19.50
2016,08,03,12,19,19.40
2016,08,03,12,20,19.40
2016,08,03,12,21,19.40
2016,08,03,12,22,19.50
2016,08,03,12,23,19.60
2016,08,03,12,24,19.70
2016,08,03,12,25,19.80
2016,08,03,12,26,19.90
2016,08,03,12,27,20.00
2016,08,03,12,28,20.10
2016,08,03,12,29,20.20
2016,08,03,12,30,20.20
2016,08,03,12,31,20.20
2016,08,03,12,32,20.20
2016,08,03,12,33,20.20
2016,08,03,12,34,20.30
2016,08,03,12,35,20.30
2016,08,03,12,36,20.30
2016,08,03,12,37,20.30
2016,08,03,12,38,20.30
2016,08,03,12,39,20.30
2016,08,03,12,40,20.30
2016,08,03,12,41,20.30
2016,08,03,12,42,20.30
2016,08,03,12,43,20.20
2016,08,03,12,44,20.10
2016,08,03,12,45,20.10
2016,08,03,12,46,20.10
2016,08,03,12,47,20.10
2016,08,03,12,48,20.10
2016,08,03,12,49,20.10
2016,08,03,12,50,20.10
2016,08,03,12,51,20.20
2016,08,03,12,52,20.20
2016,08,03,12,53,20.20
2016,08,03,12,54,20.30
2016,08,03,12,55,20.30
2016,08,03,12,56,20.40
2016,08,03,12,57,20.40
2016,08,03,12,58,20.40
2016,08,03,12,59,20.30
2016,08,03,13,00,20.30
2016,08,03,13,01,20.30
2016,08,03,13,02,20.30
2016,08,03,13,03,20.30
2016,08,03,13,04,20.30
2016,08,03,13,05,20.30
2016,08,03,13,06,20.40
2016,08,03,13,07,20.40
2016,08,03,13,08,20.40
2016,08,03,13,09,20.40
2016,08,03,13,10,20.40
2016,08,03,13,11,20.40
2016,08,03,13,12,20.40
2016,08,03,13,13,20.40
2016,08,03,13,14,20.50
2016,08,03,13,15,20.60
2016,08,03,13,16,20.60
2016,08,03,13,17,20.60
2016,08,03,13,18,20.60
2016,08,03,13,19,20.60
2016,08,03,13,20,20.60
2016,08,03,13,21,20.60
2016,08,03,13,22,20.60
2016,08,03,13,23,20.60
2016,08,03,13,24,20.50
2016,08,03,13,25,20.50
2016,08,03,13,26,20.40
2016,08,03,13,27,20.40
2016,08,03,13,28,20.40
2016,08,03,13,29,20.40
2016,08,03,13,30,20.30
2016,08,03,13,31,20.20
2016,08,03,13,32,20.10
2016,08,03,13,33,20.10
2016,08,03,13,34,20.10
2016,08,03,13,35,20.10
2016,08,03,13,36,20.10
2016,08,03,13,37,20.20
2016,08,03,13,38,20.20
2016,08,03,13,39,20.20
2016,08,03,13,40,20.30
2016,08,03,13,41,20.30
2016,08,03,13,42,20.20
2016,08,03,13,43,20.10
2016,08,03,13,44,20.10
2016,08,03,13,45,20.10
2016,08,03,13,46,20.10
2016,08,03,13,47,20.10
2016,08,03,13,48,20.10
2016,08,03,13,49,20.10
2016,08,03,13,50,20.20
2016,08,03,13,51,20.10
2016,08,03,13,52,20.10
2016,08,03,13,53,20.10
2016,08,03,13,54,20.10
2016,08,03,13,55,20.20
2016,08,03,13,56,20.20
2016,08,03,13,57,20.30
2016,08,03,13,58,20.40
2016,08,03,13,59,20.40
2016,08,03,14,00,20.30
2016,08,03,14,01,20.30
2016,08,03,14,02,20.20
2016,08,03,14,03,20.20
2016,08,03,14,04,20.20
2016,08,03,14,05,20.20
2016,08,03,14,06,20.20
2016,08,03,14,07,20.20
2016,08,03,14,08,20.20
2016,08,03,14,09,20.20
2016,08,03,14,10,20.20
2016,08,03,14,11,20.20
2016,08,03,14,12,20.30
2016,08,03,14,13,20.30
2016,08,03,14,14,20.40
2016,08,03,14,15,20.50
2016,08,03,14,16,20.60
2016,08,03,14,17,20.60
2016,08,03,14,18,20.50
2016,08,03,14,19,20.60
2016,08,03,14,20,20.60
2016,08,03,14,21,20.60
2016,08,03,14,22,20.60
2016,08,03,14,23,20.60
2016,08,03,14,24,20.60
2016,08,03,14,25,20.50
2016,08,03,14,26,20.50
2016,08,03,14,27,20.40
2016,08,03,14,28,20.40
2016,08,03,14,29,20.30
2016,08,03,14,30,20.20
2016,08,03,14,31,20.20
2016,08,03,14,32,20.20
2016,08,03,14,33,20.20
2016,08,03,14,34,20.20
2016,08,03,14,35,20.20
2016,08,03,14,36,20.20
2016,08,03,14,37,20.20
2016,08,03,14,38,20.20
2016,08,03,14,39,20.30
2016,08,03,14,40,20.40
2016,08,03,14,41,20.40
2016,08,03,14,42,20.40
2016,08,03,14,43,20.40
2016,08,03,14,44,20.40
2016,08,03,14,45,20.50
2016,08,03,14,46,20.50
2016,08,03,14,47,20.40
2016,08,03,14,48,20.30
2016,08,03,14,49,20.20
2016,08,03,14,50,20.10
2016,08,03,14,51,20.00
2016,08,03,14,52,19.90
2016,08,03,14,53,19.90
2016,08,03,14,54,19.90
2016,08,03,14,55,19.90
2016,08,03,14,56,20.00
2016,08,03,14,57,20.10
2016,08,03,14,58,20.20
2016,08,03,14,59,20.20
2016,08,03,15,00,20.30
2016,08,03,15,01,20.30
2016,08,03,15,02,20.30
2016,08,03,15,03,20.40
2016,08,03,15,04,20.40
2016,08,03,15,05,20.40
2016,08,03,15,06,20.40
2016,08,03,15,07,20.50
2016,08,03,15,08,20.60
2016,08,03,15,09,20.60
2016,08,03,15,10,20.60
2016,08,03,15,11,20.60
2016,08,03,15,12,20.60
2016,08,03,15,13,20.60
2016,08,03,15,14,20.60
2016,08,03,15,15,20.50
2016,08,03,15,16,20.40
2016,08,03,15,17,20.20
2016,08,03,15,18,20.20
2016,08,03,15,19,20.10
2016,08,03,15,20,20.10
2016,08,03,15,21,20.20
2016,08,03,15,22,20.20
2016,08,03,15,23,20.30
2016,08,03,15,24,20.40
2016,08,03,15,25,20.50
2016,08,03,15,26,20.60
2016,08,03,15,27,20.70
2016,08,03,15,28,20.80
2016,08,03,15,29,20.80
2016,08,03,15,30,20.80
2016,08,03,15,31,20.90
2016,08,03,15,32,20.90
2016,08,03,15,33,20.90
2016,08,03,15,34,20.90
2016,08,03,15,35,20.90
2016,08,03,15,36,20.90
2016,08,03,15,37,21.00
2016,08,03,15,38,21.10
2016,08,03,15,39,21.10
2016,08,03,15,40,21.10
2016,08,03,15,41,21.10
2016,08,03,15,42,21.20
2016,08,03,15,43,21.20
2016,08,03,15,44,21.20
2016,08,03,15,45,21.20
2016,08,03,15,46,21.30
2016,08,03,15,47,21.30
2016,08,03,15,48,21.40
2016,08,03,15,49,21.40
2016,08,03,15,50,21.40
2016,08,03,15,51,21.40
2016,08,03,15,52,21.40
2016,08,03,15,53,21.30
2016,08,03,15,54,21.30
2016,08,03,15,55,21.30
2016,08,03,15,56,21.30
2016,08,03,15,57,21.30
2016,08,03,15,58,21.30
2016,08,03,15,59,21.30
2016,08,03,16,00,21.30
2016,08,03,16,01,21.30
2016,08,03,16,02,21.30
2016,08,03,16,03,21.30
2016,08,03,16,04,21.30
2016,08,03,16,05,21.30
2016,08,03,16,06,21.30
2016,08,03,16,07,21.40
2016,08,03,16,08,21.40
2016,08,03,16,09,21.50
2016,08,03,16,10,21.60
2016,08,03,16,11,21.60
2016,08,03,16,12,21.60
2016,08,03,16,13,21.60
2016,08,03,16,14,21.60
2016,08,03,16,15,21.60
2016,08,03,16,16,21.60
2016,08,03,16,17,21.60
2016,08,03,16,18,21.60
2016,08,03,16,19,21.60
2016,08,03,16,20,21.60
2016,08,03,16,21,21.60
2016,08,03,16,22,21.60
2016,08,03,16,23,21.60
2016,08,03,16,24,21.60
2016,08,03,16,25,21.60
2016,08,03,16,26,21.70
2016,08,03,16,27,21.70
2016,08,03,16,28,21.70
2016,08,03,16,29,21.70
2016,08,03,16,30,21.80
2016,08,03,16,31,21.80
2016,08,03,16,32,21.80
2016,08,03,16,33,21.80
2016,08,03,16,34,21.90
2016,08,03,16,35,21.90
2016,08,03,16,36,21.90
2016,08,03,16,37,21.90
2016,08,03,16,38,22.00
2016,08,03,16,39,22.00
2016,08,03,16,40,22.00
2016,08,03,16,41,22.00
2016,08,03,16,42,21.90
2016,08,03,16,43,21.90
2016,08,03,16,44,21.90
2016,08,03,16,45,21.90
2016,08,03,16,46,21.90
2016,08,03,16,47,21.90
2016,08,03,16,48,21.90
2016,08,03,16,49,21.90
2016,08,03,16,50,21.90
2016,08,03,16,51,21.90
2016,08,03,16,52,21.90
2016,08,03,16,53,21.90
2016,08,03,16,54,21.90
2016,08,03,16,55,21.90
2016,08,03,16,56,22.00
2016,08,03,16,57,21.90
2016,08,03,16,58,22.00
2016,08,03,16,59,22.00
2016,08,03,17,00,22.10
2016,08,03,17,01,22.10
2016,08,03,17,02,22.10
2016,08,03,17,03,22.10
2016,08,03,17,04,22.10
2016,08,03,17,05,22.10
2016,08,03,17,06,22.10
2016,08,03,17,07,22.20
2016,08,03,17,08,22.20
2016,08,03,17,09,22.20
2016,08,03,17,10,22.20
2016,08,03,17,11,22.20
2016,08,03,17,12,22.10
2016,08,03,17,13,22.10
2016,08,03,17,14,22.10
2016,08,03,17,15,22.10
2016,08,03,17,16,22.10
2016,08,03,17,17,22.10
2016,08,03,17,18,22.10
2016,08,03,17,19,22.10
2016,08,03,17,20,22.10